Tracking 28790 objects as of 18-Apr-2024
HD Live streaming from Space Station
objects crossing your sky now

OPS 5960 DEB

Track OPS 5960 DEB now!


NORAD ID: 43000
Int'l Code: 1970-093D
Perigee: 26,174.6 km
Apogee: 35,671.9 km
Inclination: 13.9 °
Period: 1,194.6 minutes
Semi major axis: 37294 km
RCS: Unknown
Launch date: November 6, 1970
Source: United States (US)
Launch site: AIR FORCE EASTERN TEST RANGE (AFETR)

Note: This is SATELLITE DEBRIS
Your satellite tracking list
Your tracking list is empty




NASA's NSSDC Master Catalog

Two Line Element Set (TLE):
1 43000U 70093D   24107.01716466 -.00000145  00000-0  00000-0 0  9992
2 43000  13.9454  50.5891 1273301 244.0296 102.3202  1.20542579 36078
Source of the keplerian elements: AFSPC